Regional Weather Roundup
Issued by NWS Upton, NY

Current Version | Previous Version | Text Only | Print | Product List | Glossary On
Versions: 1 2 3 4 5 6 7 8 9 10 11 12 13 14 15 16 17 18 19 20 21 22 23 24 25 26 27 28 29 30 31 32 33 34 35 36 37 38 39 40 41 42 43 44 45 46 47 48 49 50
000 ASUS41 KOKX 030918 RWROKX REGIONAL WEATHER ROUNDUP NATIONAL WEATHER SERVICE NEW YORK NY 500 AM EDT WED JUN 03 2015 NOTE: "FAIR" INDICATES FEW OR NO CLOUDS BELOW 12,000 FEET WITH NO SIGNIFICANT WEATHER AND/OR OBSTRUCTIONS TO VISIBILITY. NYZ071-072-176-178-NJZ106-104-031000- NEW YORK CITY METRO AREA CITY SKY/WX TMP DP RH WIND PRES REMARKS CENTRAL PARK CLOUDY 52 49 89 VRB6 30.22R LAGUARDIA APRT CLOUDY 53 48 83 NE7 30.19R KENNEDY INTL CLOUDY 53 49 86 N6 30.20R NEWARK/LIBERTY CLOUDY 55 50 83 NE5 30.19R BRNX BOT. GARD N/A 52 48 87 E5 30.20F TETERBORO CLOUDY 53 49 86 N5 30.19R $$ NYZ177-179-078>081-031000- LONG ISLAND NEW YORK CITY SKY/WX TMP DP RH WIND PRES REMARKS FARMINGDALE CLOUDY 51 48 89 NE6 30.19R ISLIP CLOUDY 50 47 89 NE6 30.16S SHIRLEY CLOUDY 50 47 89 CALM 30.18F WESTHAMPTON CLOUDY 50 48 93 NE6 30.19S MONTAUK POINT N/A 50 45 83 N7 30.21R $$ NYZ052-065-067-031000- HUDSON VALLEY CITY SKY/WX TMP DP RH WIND PRES REMARKS WHITE PLAINS CLOUDY 50 48 93 CALM 30.19R NEWBURGH MOCLDY 52 52 100 VRB5 30.20 FOG MONTGOMERY HAZE 50 32 50 NE3 30.20R VSB 1 POUGHKEEPSIE CLOUDY 52 49 89 CALM 30.19S ALBANY MOCLDY 50 43 77 N5 30.24R $$ NJZ001-105-106-008-010-013-015-019>022-104-031000- NEW JERSEY CITY SKY/WX TMP DP RH WIND PRES REMARKS NEWARK/LIBERTY CLOUDY 55 50 83 NE5 30.19R TETERBORO CLOUDY 53 49 86 N5 30.19R CALDWELL CLOUDY 53 49 86 CALM 30.20R MORRISTOWN CLOUDY 54 50 87 CALM 30.20R SOMERVILLE CLOUDY 54 50 86 NE3 30.17S SUSSEX CLOUDY 50 48 93 CALM 30.20R ANDOVER N/A 52 51 97 N5 30.19R TRENTON CLOUDY 53 51 93 NE5 30.17S MILLVILLE CLOUDY 54 52 93 NE9 30.14S ATLANTIC CITY CLOUDY 54 52 93 NE8 30.14S WRIGHTSTOWN CLOUDY 52 50 93 NE9 30.15R TOMS RIVER CLOUDY N/A N/A N/A NE7 30.17S BELMAR CLOUDY 52 45 76 NE6 30.18R $$ PAZ047>061-062-071-031000- EASTERN PENNSYLVANIA CITY SKY/WX TMP DP RH WIND PRES REMARKS PHILADELPHIA LGT RAIN 55 51 86 NE8 30.17S ALLENTOWN CLOUDY 55 52 89 NE5 30.18R SCRANTON MOCLDY 50 48 93 NE3 30.19S $$ CTZ002-004>006-009-010-012-RIZ004-006-007-MAZ004-011-015-031000- SOUTHERN NEW ENGLAND IN CT CITY SKY/WX TMP DP RH WIND PRES REMARKS BRADLEY INTL FOG 46 43 89 N3 30.20S VSB 1/2 HARTFORD MOCLDY 45 43 93 SE7 30.20F DANBURY CLOUDY 49 45 86 NE5 30.20S WTRBRY/OXFORD CLOUDY 46 39 76 N6 30.20S BRIDGEPORT CLOUDY N/A N/A N/A MISG 30.19S MERIDEN CLOUDY 46 44 93 NW3 30.20S NEW HAVEN CLOUDY 47 45 93 CALM 30.19S CHESTER DRIZZLE 46 45 93 NE5 30.19S GROTON CLOUDY 48 44 86 NE9 30.19F WILLIMANTIC CLOUDY 48 45 89 N3 30.20F IN RI CITY SKY/WX TMP DP RH WIND PRES REMARKS PROVIDENCE CLOUDY 47 43 86 NW3 30.21R BLOCK ISLAND CLOUDY 48 43 81 N7 30.19S WESTERLY CLOUDY 48 45 89 N5 30.20S IN MA CITY SKY/WX TMP DP RH WIND PRES REMARKS BOSTON CLOUDY 46 45 93 N6 30.22R WORCESTER MOCLDY 44 42 93 NW9 30.19S FOG WESTFIELD FOG 47 45 93 N3 30.20S VSB 1/4 PROVINCETOWN CLOUDY 48 43 81 N9 30.20R NANTUCKET CLOUDY 50 45 83 N16 30.17R $$ ANZ330-335-338-340-345-350-353-355-031000- COASTAL MARINE OBSERVATIONS STATION/POSITION TIME SKY/WX TEMP WIND PRES VSBY WAVE AIR SEA DIR/SP/G HT/PER (UTC) (F) (DEG/KT/KT) (MB) (MI) (FT/S) NY HARB ENTRANCE 0850 53 56 60/ 12/ 14 1021.4 3/ 6 4S FIRE IS 0903 54 N/A 4/ 6 20S FIRE ISLAND 0850 52 56 60/ 14/ 16 1021.2 5/ 7 GREAT SOUTH BAY 0800 52 63 50/ 10/ 12 N/A 23SW MTP 0850 51 56 30/ 16/ 17 1021.3 4/ 5 HUDSON CANYON NOT AVBL KINGS POINT 0800 52 56 CALM / 2 1021.5 CENTRAL LI SOUND 0815 51 56 40/ 8/ 12 N/A EASTERN LI SOUND 0800 49 30/ 8/ 10 N/A ROBBINS REEF 0800 53 90/ 7/ 9 1020.9 $$ >>>>>>>>>>>>>>>>>>>>>>>>>>>> KEY <<<<<<<<<<<<<<<<<<<<<<<<<<< > < > SKY/WX - SKY CONDITION/PRESENT WEATHER < > TMP - TEMPERATURE IN FAHRENHEIT < > DP - DEWPOINT IN FAHRENHEIT < > RH - RELATIVE HUMIDITY IN PERCENT < > WIND - DIRECTION AND SPEED IN MPH < > PRES - MEAN SEA LEVEL PRESSURE IN INCHES OF HG < > WCI - WIND CHILL INDEX < > VSB - VISIBILITY IN MILES < > HX - HEAT INDEX < > TC - TEMPERATURE IN CELSIUS < > VRB - VARIABLE WIND DIRECTION < > < >>>>>>>>>>>>>>>>>>>>>>>>>>>> KEY <<<<<<<<<<<<<<<<<<<<<<<<<<<

USA.gov is the U.S. government's official web portal to all federal, state and local government web resources and services.